| time (UTC) | temp F | wind direction | speed MPH | gust MPH | rain 1hr in | rain 24hr in | rain mn in | humidity % | barometer mb |
| 20260903000100 | 62 | 120 | 1.0 | 4.0 | 0.00 | 0.00 | 0.00 | 86 | 1020.4 |
| 20260902234606 | 62 | 173 | 1.0 | 5.0 | 0.00 | 0.00 | 0.00 | 84 | 1020.8 |
| 20260902233058 | 62 | 0 | 0.0 | 4.0 | 0.00 | 0.00 | 0.00 | 81 | 1021.1 |
| 20260902231555 | 62 | 168 | 0.0 | 3.0 | 0.00 | 0.00 | 0.00 | 79 | 1021.1 |
| 20260902230100 | 63 | 192 | 0.0 | 6.0 | 0.00 | 0.00 | 0.00 | 77 | 1021.1 |
| 20260902224559 | 64 | 173 | 0.0 | 6.0 | 0.00 | 0.00 | 0.00 | 75 | 1021.5 |
| 20260902223103 | 64 | 120 | 2.0 | 5.0 | 0.00 | 0.00 | 0.00 | 73 | 1021.5 |
| 20260902221605 | 65 | 177 | 1.0 | 5.0 | 0.00 | 0.00 | 0.00 | 71 | 1021.8 |
| 20260902220100 | 65 | 116 | 1.0 | 4.0 | 0.00 | 0.00 | 0.00 | 69 | 1021.8 |
| 20260902214557 | 66 | 150 | 1.0 | 8.0 | 0.00 | 0.00 | 0.00 | 66 | 1021.6 |
| 20260902213053 | 67 | 139 | 1.0 | 6.0 | 0.00 | 0.00 | 0.00 | 65 | 1021.5 |
| 20260902211550 | 67 | 155 | 2.0 | 7.0 | 0.00 | 0.00 | 0.00 | 64 | 1021.8 |
| 20260902210057 | 68 | 104 | 2.0 | 9.0 | 0.00 | 0.00 | 0.00 | 62 | 1021.5 |
| 20260902204559 | 68 | 36 | 3.0 | 7.0 | 0.00 | 0.00 | 0.00 | 61 | 1021.7 |
| 20260902203054 | 68 | 265 | 2.0 | 7.0 | 0.00 | 0.00 | 0.00 | 66 | 1021.8 |
| 20260902201607 | 67 | 204 | 3.0 | 9.0 | 0.00 | 0.00 | 0.00 | 62 | 1021.8 |
| 20260902200058 | 67 | 0 | 1.0 | 8.0 | 0.00 | 0.00 | 0.00 | 61 | 1022.1 |
| 20260902194557 | 67 | 178 | 4.0 | 7.0 | 0.00 | 0.00 | 0.00 | 59 | 1022.4 |
| 20260902193058 | 68 | 153 | 3.0 | 8.0 | 0.00 | 0.00 | 0.00 | 60 | 1022.7 |
| 20260902191601 | 68 | 118 | 1.0 | 6.0 | 0.00 | 0.00 | 0.00 | 60 | 1022.5 |
| 20260902184557 | 67 | 135 | 3.0 | 7.0 | 0.00 | 0.00 | 0.00 | 59 | 1022.2 |
| 20260902183105 | 67 | 132 | 2.0 | 7.0 | 0.00 | 0.00 | 0.00 | 62 | 1022.5 |
| 20260902181555 | 66 | 136 | 2.0 | 7.0 | 0.00 | 0.00 | 0.00 | 62 | 1022.7 |
| 20260902180055 | 66 | 170 | 2.0 | 7.0 | 0.00 | 0.00 | 0.00 | 63 | 1022.9 |
| 20260902174559 | 66 | 40 | 1.0 | 6.0 | 0.00 | 0.00 | 0.00 | 69 | 1022.8 |
| 20260902173057 | 66 | 225 | 2.0 | 6.0 | 0.00 | 0.00 | 0.00 | 69 | 1022.9 |
| 20260902171605 | 66 | 162 | 1.0 | 6.0 | 0.00 | 0.00 | 0.00 | 70 | 1022.8 |
| 20260902170103 | 66 | 201 | 1.0 | 7.0 | 0.00 | 0.00 | 0.00 | 72 | 1022.9 |
| 20260902164601 | 67 | 124 | 3.0 | 8.0 | 0.00 | 0.00 | 0.00 | 73 | 1022.7 |
| 20260902163054 | 66 | 92 | 1.0 | 5.0 | 0.00 | 0.00 | 0.00 | 80 | 1022.8 |
| 20260902161608 | 66 | 148 | 1.0 | 6.0 | 0.00 | 0.00 | 0.00 | 80 | 1023.2 |
| 20260902160116 | 66 | 126 | 0.0 | 5.0 | 0.00 | 0.00 | 0.00 | 81 | 1023.4 |
| 20260902154601 | 66 | 103 | 1.0 | 5.0 | 0.00 | 0.00 | 0.00 | 81 | 1023.5 |
| 20260902153055 | 66 | 117 | 1.0 | 4.0 | 0.00 | 0.00 | 0.00 | 82 | 1023.6 |
| 20260902151609 | 66 | 196 | 1.0 | 7.0 | 0.00 | 0.00 | 0.00 | 82 | 1023.6 |
| 20260902150100 | 66 | 0 | 1.0 | 4.0 | 0.00 | 0.00 | 0.00 | 83 | 1023.5 |
| 20260902144556 | 66 | 0 | 1.0 | 4.0 | 0.00 | 0.00 | 0.00 | 85 | 1023.2 |
| 20260902143053 | 66 | 81 | 2.0 | 7.0 | 0.00 | 0.00 | 0.00 | 88 | 1023.1 |
| 20260902141558 | 66 | 171 | 3.0 | 8.0 | 0.00 | 0.00 | 0.00 | 96 | 1023.1 |
| 20260902140059 | 66 | 70 | 1.0 | 4.0 | 0.00 | 0.00 | 0.00 | 100 | 1023.0 |
| 20260902134556 | 67 | 194 | 0.0 | 4.0 | 0.00 | 0.00 | 0.00 | 100 | 1023.0 |
| 20260902133103 | 67 | 70 | 2.0 | 5.0 | 0.00 | 0.00 | 0.00 | 100 | 1023.0 |
| 20260902131550 | 67 | 0 | 1.0 | 4.0 | 0.00 | 0.00 | 0.00 | 100 | 1022.8 |
| 20260902130047 | 66 | 0 | 1.0 | 4.0 | 0.00 | 0.00 | 0.00 | 100 | 1022.9 |
| 20260902124555 | 66 | 80 | 1.0 | 4.0 | 0.00 | 0.00 | 0.00 | 100 | 1023.1 |
| 20260902123104 | 66 | 0 | 1.0 | 4.0 | 0.00 | 0.00 | 0.00 | 100 | 1022.9 |
| 20260902121603 | 67 | 0 | 1.0 | 3.0 | 0.00 | 0.00 | 0.00 | 100 | 1022.9 |
| 20260902120058 | 67 | 85 | 0.0 | 4.0 | 0.00 | 0.00 | 0.00 | 100 | 1022.9 |
| 20260902114555 | 66 | 98 | 1.0 | 5.0 | 0.00 | 0.00 | 0.00 | 100 | 1022.7 |
| 20260902113053 | 66 | 55 | 1.0 | 5.0 | 0.00 | 0.00 | 0.00 | 100 | 1022.8 |
| 20260902111548 | 67 | 326 | 0.0 | 6.0 | 0.00 | 0.00 | 0.00 | 100 | 1022.6 |
| 20260902110059 | 67 | 124 | 0.0 | 5.0 | 0.00 | 0.00 | 0.00 | 100 | 1022.4 |
| 20260902104601 | 67 | 0 | 0.0 | 4.0 | 0.00 | 0.00 | 0.00 | 100 | 1022.1 |
| 20260902103103 | 67 | 0 | 1.0 | 5.0 | 0.00 | 0.00 | 0.00 | 100 | 1021.9 |
| 20260902101557 | 67 | 101 | 0.0 | 6.0 | 0.00 | 0.00 | 0.00 | 100 | 1022.1 |
| 20260902100057 | 67 | 188 | 0.0 | 1.0 | 0.00 | 0.00 | 0.00 | 100 | 1022.0 |
| 20260902094554 | 66 | 188 | 0.0 | 1.0 | 0.00 | 0.00 | 0.00 | 100 | 1021.8 |
| 20260902093050 | 67 | 0 | 0.0 | 1.0 | 0.00 | 0.00 | 0.00 | 100 | 1021.9 |
| 20260902091600 | 67 | 0 | 0.0 | 1.0 | 0.00 | 0.00 | 0.00 | 100 | 1021.7 |
| 20260902090051 | 67 | 188 | 0.0 | 2.0 | 0.00 | 0.00 | 0.00 | 100 | 1021.7 |
| 20260902084555 | 67 | 0 | 0.0 | 2.0 | 0.00 | 0.00 | 0.00 | 100 | 1021.9 |
| 20260902083103 | 67 | 0 | 0.0 | 0.0 | 0.00 | 0.00 | 0.00 | 100 | 1021.8 |
| 20260902081555 | 67 | 0 | 0.0 | 1.0 | 0.00 | 0.00 | 0.00 | 100 | 1021.8 |
| 20260902080107 | 67 | 0 | 0.0 | 1.0 | 0.00 | 0.00 | 0.00 | 100 | 1021.9 |
| 20260902074602 | 67 | 0 | 0.0 | 1.0 | 0.00 | 0.00 | 0.00 | 100 | 1021.6 |
| 20260902073057 | 67 | 0 | 0.0 | 1.0 | 0.00 | 0.00 | 0.00 | 100 | 1021.7 |
| 20260902071550 | 66 | 0 | 0.0 | 1.0 | 0.00 | 0.00 | 0.00 | 100 | 1021.4 |
| 20260902070051 | 66 | 0 | 0.0 | 2.0 | 0.00 | 0.00 | 0.00 | 100 | 1021.4 |
| 20260902064548 | 66 | 0 | 0.0 | 2.0 | 0.00 | 0.00 | 0.00 | 100 | 1021.4 |
| 20260902063059 | 66 | 0 | 0.0 | 0.0 | 0.00 | 0.00 | 0.00 | 100 | 1021.3 |
| 20260902061610 | 66 | 0 | 0.0 | 1.0 | 0.00 | 0.00 | 0.00 | 100 | 1021.4 |
| 20260902060052 | 66 | 0 | 0.0 | 1.0 | 0.00 | 0.00 | 0.00 | 100 | 1021.5 |
| 20260902054559 | 66 | 63 | 0.0 | 1.0 | 0.00 | 0.00 | 0.00 | 100 | 1021.5 |
| 20260902053057 | 66 | 0 | 0.0 | 2.0 | 0.00 | 0.00 | 0.00 | 100 | 1021.3 |
| 20260902051551 | 66 | 67 | 0.0 | 2.0 | 0.00 | 0.00 | 0.00 | 100 | 1021.0 |
| 20260902050051 | 66 | 0 | 0.0 | 1.0 | 0.00 | 0.00 | 0.00 | 100 | 1020.8 |
| 20260902044558 | 66 | 0 | 0.0 | 2.0 | 0.00 | 0.00 | 0.00 | 100 | 1020.5 |
| 20260902043104 | 65 | 0 | 0.0 | 2.0 | 0.00 | 0.00 | 0.00 | 100 | 1020.4 |
| 20260902041551 | 65 | 0 | 0.0 | 2.0 | 0.00 | 0.00 | 0.00 | 99 | 1020.1 |
| 20260902040052 | 65 | 0 | 0.0 | 1.0 | 0.00 | 0.00 | 0.00 | 98 | 1020.0 |
| 20260902034547 | 64 | 0 | 0.0 | 0.0 | 0.00 | 0.00 | 0.00 | 98 | 1020.0 |
| 20260902033107 | 64 | 0 | 0.0 | 0.0 | 0.00 | 0.00 | 0.00 | 97 | 1020.1 |
| 20260902031554 | 64 | 0 | 0.0 | 0.0 | 0.00 | 0.00 | 0.00 | 96 | 1019.9 |
| 20260902030101 | 65 | 0 | 0.0 | 1.0 | 0.00 | 0.00 | 0.00 | 95 | 1019.7 |
| 20260902024559 | 65 | 0 | 0.0 | 1.0 | 0.00 | 0.00 | 0.00 | 94 | 1019.7 |
| 20260902023055 | 65 | 0 | 0.0 | 0.0 | 0.00 | 0.00 | 0.00 | 94 | 1019.7 |
| 20260902021609 | 65 | 0 | 0.0 | 1.0 | 0.00 | 0.00 | 0.00 | 93 | 1019.9 |
| 20260902020100 | 66 | 0 | 0.0 | 1.0 | 0.00 | 0.00 | 0.00 | 92 | 1019.8 |
| 20260902014602 | 66 | 0 | 0.0 | 0.0 | 0.00 | 0.00 | 0.00 | 92 | 1020.1 |
| 20260902013055 | 66 | 0 | 0.0 | 2.0 | 0.00 | 0.00 | 0.00 | 91 | 1020.1 |
| 20260902011603 | 66 | 0 | 0.0 | 1.0 | 0.00 | 0.00 | 0.00 | 91 | 1020.1 |
| 20260902010058 | 66 | 0 | 0.0 | 0.0 | 0.00 | 0.00 | 0.00 | 89 | 1019.9 |
| 20260902004600 | 66 | 0 | 0.0 | 0.0 | 0.00 | 0.00 | 0.00 | 88 | 1019.7 |
| 20260902003054 | 66 | 0 | 0.0 | 2.0 | 0.00 | 0.00 | 0.00 | 87 | 1019.7 |
| 20260902001558 | 66 | 0 | 0.0 | 2.0 | 0.00 | 0.00 | 0.00 | 85 | 1019.2 |